Home   Weather   Fayetteville   Past weeks

Flag for USA Past Weather in Fayetteville, North Carolina, USA — Yesterday and Last 2 Weeks

Now
71 °F

Clear.


Feels Like: 72 °F
Forecast: 62 / 84 °F
Wind: 10 mph from South

Location: Fayetteville Regional Airport

Current Time: Apr 27, 2017 at 1:15:33 am

Latest Report: Apr 26, 2017 at 11:53 pm


Visibility: 10 mi

Pressure: 29.83 "Hg

Humidity: 78%

Dew Point: 64 °F

Location of FayettevilleLocation

Past Weather in Fayetteville — Graph

°F

Fayetteville Temperature Yesterday

Maximum temperature yesterday: 84 °F (at 4:53 pm)
Minimum temperature yesterday: 62 °F (at 5:10 am)
Average temperature yesterday: 71 °F

High & Low Weather Summary for the Past Weeks

 TemperatureHumidityPressure
High90 °F (Apr 21, 2:53 pm)100% (Apr 15, 8:53 am)30.36 "Hg (Apr 15, 8:53 am)
Low52 °F (Apr 14, 6:53 am)33% (Apr 16, 4:53 pm)29.54 "Hg (Apr 25, 4:53 am)
Average68 °F74%30.02 "Hg
* Reported Apr 11 11:53 pm — Apr 26 11:53 pm, Fayetteville, Weather by CustomWeather, © 2017

Note: Actual official high and low records may vary slightly from our data, if they occured in-between our weather recording intervals... More about our weather records

Advertising

Fayetteville Weather History for the Previous 24 Hours

Scroll right to see more
 ConditionsComfort  
Time TempWeatherWind HumidityBarometerVisibility
11:53 pm
Wed, Apr 26
71 °FClear.10 mph78%29.83 "Hg10 mi
10:53 pm72 °FClear.7 mph78%29.82 "Hg10 mi
9:53 pm73 °FClear.8 mph79%29.80 "Hg10 mi
8:53 pm75 °FClear.8 mph66%29.78 "Hg10 mi
7:53 pm78 °FSunny.6 mph58%29.78 "Hg10 mi
6:53 pm83 °FSunny.9 mph48%29.77 "Hg10 mi
5:53 pm83 °FPartly sunny.7 mph50%29.76 "Hg10 mi
4:53 pm84 °FScattered clouds.10 mph48%29.75 "Hg10 mi
3:53 pm82 °FScattered clouds.10 mph51%29.76 "Hg10 mi
2:53 pm82 °FSunny.14 mph51%29.77 "Hg10 mi
1:53 pm80 °FSunny.10 mph54%29.78 "Hg10 mi
12:53 pm78 °FPassing clouds.13 mph56%29.81 "Hg10 mi
11:53 am74 °FSunny.No wind60%29.84 "Hg10 mi
10:53 am70 °FOvercast.5 mph68%29.85 "Hg10 mi
9:53 am67 °FPartly sunny.5 mph76%29.83 "Hg10 mi
8:53 am65 °FMostly cloudy.No wind78%29.81 "Hg10 mi
7:53 am63 °FOvercast.3 mph84%29.79 "Hg10 mi
7:23 am62 °FMore clouds than sun.3 mph86%29.80 "Hg10 mi
6:53 am62 °FMostly cloudy.No wind86%29.78 "Hg10 mi
5:53 am62 °FOvercast.6 mph86%29.75 "Hg10 mi
5:10 am62 °FOvercast.7 mph86%29.76 "Hg9 mi
4:53 am63 °FOvercast.7 mph84%29.74 "Hg8 mi
4:34 am63 °FOvercast.6 mph84%29.76 "Hg10 mi
3:53 am63 °FOvercast.6 mph84%29.73 "Hg10 mi
2:53 am63 °FOvercast.6 mph84%29.73 "Hg10 mi
1:53 am63 °FOvercast.5 mph87%29.74 "Hg10 mi
Weather by CustomWeather, © 2017

See weather overviewHow to use our weather pages